x

Halibut Bank (46146) Wave Buoy

5:00pm - Sun 30th Aug 2015 All times are PDT. -7 hours from GMT.

  • Sig Wave height 2.0ft
  • Peak Period 3s
  • Wind
    16mph, 18mph gusts
  • Sea Temp 61°f
  • Air Temp 61°f
  • Sea Pressure 1011.1mb
  • Halibut Bank
  • Halibut Bank

More Historic Weather Station data

Upgrade to MSW Pro to gain access to the past 30 days of data for over 8000 Wavebouys and Weather Stations around the globe.

Join Pro

Comparision Forecast

View Surf forecast
   
Sun 08/30 5:00pm 2ft 3s 16 18 mph 1011.1mb 61f 61f
4:00pm 2ft 3s 18 22 mph 1010.8mb 61f 62f
3:00pm 2ft 3s 16 20 mph 1011.1mb 62f 61f
2:00pm 1.6ft 3s 16 20 mph 1011.3mb 62f 61f
1:00pm 1.6ft 3s 16 20 mph 1011.3mb 62f 60f
12:00pm 1.6ft 3s 13 18 mph 1011.1mb 62f 60f
11:00am 1.3ft 3s 13 16 mph 1010.6mb 62f 59f
10:00am 1ft 3s 11 13 mph 1010.3mb 62f 59f
9:00am 1ft 3s 13 16 mph 1009.2mb 62f 59f
8:00am 1ft 3s 7 9 mph 1008.5mb 62f 58f
7:00am 1.3ft 3s 7 9 mph 1007.6mb 62f 58f
6:00am 1.3ft 3s 11 16 mph 1007mb 61f 58f
5:00am 1.3ft 3s 13 16 mph 1006.3mb 61f 60f
4:00am 1ft 3s 13 16 mph 1006mb 61f 60f
3:00am 1.3ft 3s 9 11 mph 1005.8mb 62f 60f
2:00am 1.6ft 3s 9 11 mph 1005.5mb 62f 60f
1:00am 2ft 4s 16 18 mph 1005.4mb 62f 60f
12:00am 2ft 4s 16 18 mph 1005.2mb 63f 61f
Sat 08/29 11:00pm 2.5ft 4s 18 22 mph 1004.7mb 62f 62f
10:00pm 3ft 4s 20 22 mph 1004.4mb 63f 63f
9:00pm 2.5ft 4s 22 29 mph 1003.7mb 63f 63f
8:00pm 2.5ft 4s 22 27 mph 1003.4mb 61f 62f
7:00pm 2.5ft 4s 22 27 mph 1002.7mb 60f 61f
6:00pm 2.5ft 4s 18 25 mph 1003.1mb 60f 61f
5:00pm 2.5ft 5s 9 11 mph 1003.1mb 61f 61f
4:00pm 3.5ft 5s 18 25 mph 1002.5mb 61f 64f
3:00pm 5ft 6s 20 25 mph 1001.4mb 62f 65f
2:00pm 5ft 6s 27 34 mph 999.1mb 62f 64f
1:00pm 5.5ft 5s 31 38 mph 997mb 62f 65f
12:00pm 6ft 5s 34 40 mph 995mb 61f 65f
11:00am 5ft 5s 29 38 mph 994.3mb 61f 65f
10:00am 4.5ft 5s 29 36 mph 996.3mb 61f 64f
9:00am 3ft 3s 29 40 mph 996.4mb 62f 64f
8:00am 1.6ft 3s 25 31 mph 996mb 62f 63f
7:00am 2ft 3s 13 20 mph 996.2mb 62f 62f
6:00am 1.3ft 3s 18 25 mph 997.5mb 62f 64f
5:00am 1.6ft 3s 11 16 mph 997.2mb 62f 66f
4:00am 1.3ft 3s 16 18 mph 999.9mb 62f 64f
3:00am 1.3ft 3s 16 18 mph 1001.1mb 62f 64f
2:00am 1ft 3s 9 11 mph 1002.1mb 63f 65f
1:00am 1ft 2s 11 16 mph 1003.9mb 63f 65f
12:00am 1ft 2s 13 16 mph 1005.2mb 63f 65f
Fri 08/28 11:00pm 1ft 2s 13 16 mph 1006.8mb 62f 64f
10:00pm 0.7ft 2s 11 13 mph 1007.9mb 62f 64f
9:00pm 0.7ft 6s 11 13 mph 1008.6mb 62f 64f
8:00pm 0.7ft 2s 9
mph
1009.2mb 62f 65f
7:00pm 1ft 3s 9 11 mph 1009.6mb 62f 65f
6:00pm 1ft 3s 9
mph
1010.3mb 62f 64f
5:00pm 1ft 3s 13
mph
1011mb 62f 64f
4:00pm 1.6ft 3s 11
mph
1011.8mb 63f 64f
3:00pm 2ft 3s 13 18 mph 1012.6mb 63f 64f
2:00pm 2ft 3s 16 18 mph 1012.9mb 63f 63f
1:00pm 2ft 3s 16 20 mph 1013.2mb 63f 63f
12:00pm 2.5ft 4s 16 18 mph 1013.7mb 63f 62f
11:00am 2.5ft 4s 16 18 mph 1013.9mb 63f 62f
10:00am 2.5ft 4s 18 20 mph 1013.5mb 62f 62f
9:00am 2.5ft 4s 18 20 mph 1013.6mb 62f 62f
8:00am 2ft 3s 20 22 mph 1013.1mb 62f 62f
7:00am 2ft 3s 18 20 mph 1013mb 62f 61f
6:00am 1ft 3s 18 20 mph 1012.7mb 62f 62f
5:00am 1ft 3s 18 20 mph 1012.9mb 62f 63f
4:00am 1.6ft 3s 11 13 mph 1012.7mb 62f 66f
3:00am 1.3ft 3s 18 22 mph 1012.4mb 63f 66f
2:00am 0.7ft 2s 16 20 mph 1013mb 64f 64f
1:00am 0.3ft 2s 11 16 mph 1014.1mb 65f 65f
12:00am 0.3ft 2s 13 16 mph 1014.3mb 65f 67f
Thu 08/27 11:00pm 0.3ft 5s 11 13 mph 1013.2mb 65f 68f
10:00pm 0.3ft 3s 9 11 mph 1013.3mb 65f 67f
9:00pm 0.7ft 4s 9 11 mph 1013.1mb 65f 68f
8:00pm 0.3ft 3s 7
mph
1013.3mb 65f 67f
7:00pm 0.3ft 5s 4 7 mph 1013.5mb 66f 66f
6:00pm 0.3ft 4s 4
mph
1014.2mb 65f 66f
5:00pm 0.3ft 3s 9
mph
1014.8mb 66f 66f
4:00pm 0.3ft 4s 7 9 mph 1015.5mb 65f 66f
3:00pm 0.3ft 2s 4 7 mph 1016.4mb 65f 67f
2:00pm 0.3ft 4s 4 7 mph 1017.2mb 67f 66f
1:00pm 0.3ft 4s 2
mph
1018mb 66f 66f
12:00pm 0.3ft 14s 2
mph
1018.3mb 66f 65f
11:00am 0.3ft 2s  -  mph 1018.6mb 64f 67f
10:00am 0.7ft 3s  -  mph 1018.7mb 64f 66f
9:00am 0.3ft 6s  -  mph 1018.6mb 64f 64f
8:00am 0.3ft 4s 2
mph
1018.5mb 63f 63f
7:00am  -  4s  -  2 mph 1017.9mb 63f 63f
6:00am 0.3ft 4s 2
mph
1017.5mb 64f 63f
5:00am 0.3ft 14s 2 4 mph 1016.9mb 64f 64f
4:00am 0.3ft 3s 4 7 mph 1016.4mb 64f 64f
3:00am 0.3ft 3s 4
mph
1016mb 64f 64f
2:00am 0.3ft 3s 2
mph
1016.1mb 64f 64f